Location: Imeni Kalinina
(51.0495°N, 71.5712°E)
Time: 10:32:15
(UTC+00:00)

Daily predictions for brighter satellites

Satellite Brightness Start Highest point End
(mag) Time Altitude Azimuth Time Altitude Azimuth Time Altitude Azimuth
Cosmos 1666 Rocket 4.5 15:19:53 10° N 15:23:56 33° ENE 15:27:54 10° SE
CZ-4C R/B 3.5 15:20:21 10° NW 15:26:53 50° NNE 15:34:38 10° ESE
COSMOS 2406 4.4 15:26:46 10° NNW 15:31:48 31° NE 15:36:49 10° ESE
USA 245 3.8 15:31:59 10° ESE 15:33:41 18° ENE 15:35:22 10° NNE
Meteor 1-20 Rocket 4.3 15:28:38 10° N 15:34:18 65° ENE 15:39:48 10° SSE
USA 305 3.5 15:30:17 10° WNW 15:34:31 58° N 15:38:44 10° E
Cosmos 2082 Rocket 3.9 15:30:36 10° NNW 15:34:55 22° NE 15:39:12 10° E
Cosmos 1933 3.9 15:31:54 10° SSE 15:35:40 39° E 15:39:28 10° NNE
Gbstr 26 Del rocket 4.4 15:29:07 10° WSW 15:37:07 80° SSE 15:44:03 10° ENE
Spot 2 Rocket 4.2 15:34:01 10° SE 15:38:42 40° ENE 15:43:23 10° N
USA 186 4.3 15:37:25 10° SW 15:38:43 13° W 15:39:59 10° WNW
BREEZE-M R/B 3.2 15:37:33 10° SSW 15:39:33 20° SSE 15:41:28 10° E
Resurs 01 Rocket 1.7 15:38:16 10° SSE 15:42:43 90° E 15:47:13 10° NNW
Cosmos 1437 Rocket 2.7 15:42:32 10° S 15:46:24 86° ESE 15:50:23 10° NNE
Cosmos 1242 Rocket 3.1 15:43:23 10° SSE 15:46:44 38° E 15:50:05 10° NNE
Sich 1 3.0 15:42:35 10° N 15:46:56 85° E 15:51:17 10° S
BREEZE M DEB (TANK) 4.2 15:44:50 10° WSW 15:48:52 70° SSE 16:02:48 10° E
OBJECT-B 3.4 15:47:26 10° SW 15:49:53 20° W 15:52:22 10° NW
USA 306 3.4 15:49:27 10° WNW 15:53:41 60° N 15:57:55 10° E
ERS-1 Rocket 3.8 15:50:54 11° SE 15:55:13 37° ENE 15:59:50 10° N
Cosmos 1503 Rocket 4.2 15:50:48 10° S 15:55:45 48° ESE 16:00:45 10° NNE
SOZ 4.4 15:54:54 10° WSW 15:57:39 51° SSE 15:59:50 10° E
SPOT 5 3.8 15:55:12 12° SE 15:59:29 40° ENE 16:04:22 10° N
Cosmos 1500 4.0 15:56:26 10° N 15:59:56 35° ENE 16:02:35 15° SE
Cosmos 1782 3.3 15:56:41 10° SSE 16:00:26 40° E 16:04:12 10° NNE
Cosmos 2278 Rocket 3.6 16:00:28 13° SE 16:03:31 19° E 16:07:26 10° NE
Meteor 1-25 Rocket 4.4 15:57:44 10° NNW 16:03:36 83° W 16:09:27 10° S
BREEZE M DEB (TANK) 2.0 15:58:40 10° W 16:04:21 69° S 16:06:16 15° ESE
Terra 2.8 16:05:44 14° ESE 16:09:17 34° ENE 16:13:34 10° N
Cosmos 2263 Rocket 4.5 16:06:43 10° W 16:11:29 28° NW 16:16:18 10° NNE
Cosmos 1151 Rocket 3.2 16:07:50 10° S 16:12:05 55° E 16:16:23 10° NNE
Cosmos 1844 Rocket 2.8 16:10:15 10° SSW 16:15:50 79° WNW 16:21:28 10° NNE
CZ-2C R/B 3.6 16:12:24 10° NNE 16:16:54 78° ESE 16:21:24 10° SSW
Cosmos 1602 3.8 16:13:34 10° NNW 16:17:26 79° W 16:20:47 13° S
NOSS 3-4 (A) 4.3 16:11:11 10° NW 16:17:43 53° NE 16:24:47 11° ESE
NOSS 3-4 (C) 4.3 16:11:17 10° NW 16:17:49 52° NE 16:24:54 11° ESE
USA 307 3.2 16:14:42 10° WNW 16:18:58 66° NNE 16:23:09 11° E
MetOp-B 4.5 16:14:30 10° S 16:19:49 65° WSW 16:25:10 10° NNW
SPOT 1/Viking Rocket 3.7 16:14:55 11° SSE 16:19:56 79° WSW 16:25:11 10° NNW
ERBS 4.3 16:17:19 10° WNW 16:20:16 29° N 16:23:14 10° ENE
USA 290 3.5 16:19:01 10° NW 16:22:01 35° WSW 16:24:35 13° S
Cosmos 1709 Rocket 4.1 16:18:18 10° NNW 16:24:28 80° W 16:30:26 11° S
Cosmos 1354 Rocket 3.9 16:21:40 10° SSW 16:26:52 73° ESE 16:32:07 10° NNE
BREEZE-M DEB (TANK) 3.8 16:15:11 10° WSW 16:27:57 80° SSE 16:31:19 10° ENE
Cosmos 1515 Rocket 4.1 16:26:18 19° SSE 16:28:59 39° E 16:33:05 10° NNE
NOSS 3-3 (A) 4.2 16:23:40 10° SSW 16:29:09 46° ESE 16:35:23 10° NE
NOSS 3-3 (C) 4.2 16:23:47 10° SSW 16:29:16 46° ESE 16:35:29 10° NE
Cosmos 2074 Rocket 4.4 16:24:42 10° N 16:30:51 51° ENE 16:35:16 19° SE
ATLAS 2AS CENTAUR R/B 3.7 16:23:54 10° NW 16:31:10 45° NNE 16:37:56 10° E
CREW DRAGON DEMO-1 DEB 2.4 16:28:36 10° W 16:31:15 84° N 16:32:38 25° E
ARIANE 5 R/B 2.6 16:28:03 17° SSE 16:31:24 84° WSW 16:35:46 10° NNW
Cosmos 2084 4.1 16:29:01 15° S 16:31:49 31° ESE 16:35:34 10° ENE
SL-4 R/B 4.3 16:29:07 10° W 16:31:50 16° SW 16:34:28 10° S
Meteor 1-5 Rocket 4.2 16:26:42 10° N 16:32:08 63° ENE 16:35:50 20° SSE
USA 308 3.1 16:28:11 10° WNW 16:32:28 71° NNE 16:36:07 14° E
Cosmos 1536 4.5 16:31:40 10° NNE 16:34:51 22° ENE 16:36:41 16° ESE
Cosmos 1844 4.0 16:29:55 10° SW 16:35:38 71° WNW 16:41:19 10° NNE
Cosmos 1633 Rocket 3.4 16:32:05 10° NNW 16:36:26 62° W 16:40:06 14° S
JB-3 4.3 16:33:42 10° NNE 16:37:38 64° ESE 16:40:19 19° S
ATLAS 5 CENTAUR R/B 2.9 16:32:36 10° NW 16:37:57 50° SW 16:42:37 18° SSE
SWARM C 4.4 16:38:01 10° N 16:41:22 84° E 16:43:07 26° S
SWARM A 4.1 16:38:08 10° N 16:41:29 87° E 16:43:16 25° S
USA 215 3.9 16:36:00 10° E 16:42:21 57° N 16:48:44 10° WNW
Cosmos 2315 Rocket 4.1 16:36:23 10° S 16:42:45 85° W 16:49:13 10° N
X-37B 2.0 16:40:42 10° WSW 16:43:16 22° SSW 16:43:20 22° SSW
Meteor 1-26 Rocket 4.4 16:39:25 10° SSW 16:45:08 77° WNW 16:50:43 10° N
Cosmos 1470 Rocket 3.6 16:40:59 10° NNW 16:45:30 84° W 16:48:28 21° S
Meteor 1-14 Rocket 4.4 16:40:40 10° NNW 16:46:35 77° W 16:51:06 17° S
Cosmos 1833 Rocket 2.7 16:41:16 10° NNW 16:46:58 84° ENE 16:50:36 23° SSE
Cosmos 1812 2.7 16:46:27 25° S 16:48:32 61° E 16:52:22 10° NNE
Cosmos 1328 Rocket 3.7 16:45:49 12° SSW 16:49:56 79° W 16:54:24 10° N
Cosmos 1437 2.4 16:51:19 28° SSW 16:52:40 77° W 16:55:33 10° N
CARTOSAT-1 4.1 16:52:49 18° S 16:55:49 53° W 17:00:05 10° NNW
BREEZE-M DEB (TANK) 1.4 16:53:59 10° W 16:55:49 48° SSW 16:55:49 48° SSW
Cosmos 1538 Rocket 4.0 16:54:23 10° NNW 16:59:48 89° NE 17:02:53 26° SSE
Cosmos 1933 Rocket 3.5 16:55:43 10° N 17:00:05 89° WSW 17:02:22 28° S
Cosmos 1666 2.6 17:02:23 10° NNW 17:06:08 84° W 17:07:39 35° S
Iridium 4 Rocket 3.8 17:02:32 21° S 17:06:28 82° E 17:12:25 10° N
Cosmos 1743 4.1 17:07:21 10° NNE 17:10:36 26° ENE 17:11:42 22° E
Cosmos 158 Rocket 3.8 17:08:52 10° NNW 17:13:47 75° ENE 17:16:04 32° SE
Meteor 1-27 Rocket 4.2 17:11:28 27° SSE 17:14:14 47° E 17:19:52 10° NNE
USA 305 2.8 17:10:22 10° WNW 17:14:39 80° SSW 17:16:31 33° ESE
CZ-4C R/B 3.1 17:08:50 10° NW 17:15:52 65° SW 17:20:57 25° SSE
COSMOS 2406 3.4 17:10:55 10° NW 17:16:32 63° WSW 17:19:35 27° S
Cosmos 1680 Rocket 4.1 17:12:34 10° NNW 17:17:46 50° ENE 17:20:31 26° ESE
Resurs 01 Rocket 4.3 17:18:00 10° WSW 17:19:53 12° W 17:21:46 10° WNW
Cosmos 2082 Rocket 2.2 17:14:15 10° NNW 17:19:54 80° ENE 17:22:47 30° SE
Meteor 2-6 Rocket 4.1 17:16:53 19° SSW 17:20:51 84° WNW 17:26:25 10° NNE
Cosmos 1733 Rocket 4.4 17:19:36 10° N 17:23:21 27° ENE 17:24:47 23° E
Gbstr 26 Del rocket 4.2 17:17:01 10° W 17:24:42 84° N 17:31:04 10° E
SJ 16-02 1.3 17:24:28 34° S 17:26:16 66° ESE 17:30:41 10° NNE
Cosmos 2228 Rocket 3.1 17:25:11 37° SSE 17:26:48 66° E 17:31:14 10° NNE
USA 306 2.9 17:29:30 10° WNW 17:33:44 66° SSW 17:34:53 44° SE
ERS-1 Rocket 4.1 17:30:53 18° SSW 17:34:01 36° W 17:38:41 10° NNW
Meteor 1-11 Rocket 3.9 17:28:36 10° NNW 17:34:36 79° W 17:37:43 30° S
SPOT 5 4.2 17:34:25 18° SSW 17:37:35 36° W 17:42:24 10° NNW
SL-24 DEB 4.4 17:36:31 33° SSW 17:38:33 69° W 17:43:09 10° N
H-2A R/B 3.9 17:38:27 10° N 17:42:36 58° WNW 17:44:54 24° SW
Cosmos 2278 Rocket 2.2 17:42:14 15° SSW 17:46:55 83° WNW 17:52:37 10° NNE
Terra 2.9 17:44:37 23° SSW 17:47:00 37° W 17:51:25 10° NNW
Cosmos 1271 Rocket 3.4 17:50:11 30° SW 17:51:54 54° WNW 17:55:52 10° N
Cosmos 923 Rocket 4.0 17:47:39 10° NNW 17:52:54 75° WSW 17:54:52 39° S
SL-8 Rocket 4.3 17:48:31 10° N 17:54:48 59° ENE 17:57:40 32° SE
ERBS 3.7 17:53:53 10° NW 17:56:58 36° NNE 17:58:52 19° ENE
Spot 4 3.9 17:56:06 41° SE 17:57:46 73° ENE 18:02:38 10° NNW
Cosmos 1898 Rocket 3.9 17:56:56 38° SE 17:58:11 46° ESE 18:03:17 10° NE
Cosmos 2369 Rocket 3.9 17:58:10 16° ESE 17:58:39 16° E 18:02:02 10° ENE
USA 307 3.1 17:54:46 10° WNW 17:58:56 50° SSW 17:59:14 49° SSW
Okean 1 4.0 17:59:42 37° ESE 17:59:56 37° E 18:03:39 10° NNE
Cosmos 2154 Rocket 4.3 17:53:55 10° NNW 18:00:10 61° W 18:03:27 29° SSW
Cosmos 1340 Rocket 2.8 17:58:01 10° NNW 18:02:08 81° W 18:02:54 57° S
Cosmos 1862 Rocket 4.1 18:05:36 38° ESE 18:06:08 40° E 18:10:11 10° NNE
Cosmos 1869 Rocket 4.4 18:04:11 10° NNW 18:08:16 42° W 18:09:35 32° SW
Cosmos 1943 Rocket 2.9 18:07:27 32° SE 18:08:22 34° ESE 18:13:22 10° NE
NOSS 3-4 (A) 4.1 18:02:06 10° NW 18:08:52 56° SW 18:12:12 33° S
NOSS 3-4 (C) 4.1 18:02:12 10° NW 18:08:58 57° SW 18:12:19 33° S
Cosmos 1515 3.8 18:10:52 56° ESE 18:10:58 56° E 18:14:41 10° NNE
Cosmos 2084 4.3 18:07:06 10° WSW 18:11:10 49° NW 18:15:21 10° NE
Cosmos 1536 3.7 18:07:37 10° NNW 18:11:27 41° W 18:12:23 35° SW
Cosmos 1544 3.4 18:08:34 10° NNW 18:12:05 51° W 18:12:25 49° WSW
USA 308 3.4 18:08:17 10° WNW 18:12:13 42° SW 18:12:13 42° SW
RESURS DK-1 4.4 18:16:17 10° N 18:19:39 23° NE 18:22:19 13° E
Cosmos 990 Rocket 3.9 18:20:00 42° SSW 18:21:51 83° ESE 18:27:08 10° NNE
Cosmos 2084 Rocket 3.6 18:18:20 10° NW 18:22:35 70° NE 18:23:51 44° ESE
ATLAS 2AS CENTAUR R/B 2.8 18:15:14 10° NW 18:22:39 71° SW 18:25:42 36° SSE
Cosmos 864 Rocket 4.5 18:17:31 10° N 18:23:43 73° ENE 18:26:10 38° SSE
Cosmos 44 3.4 18:18:24 10° NW 18:23:53 83° SW 18:25:37 44° SSE
Cosmos 1975 3.1 18:20:35 10° N 18:24:31 54° ENE 18:24:59 51° ESE
ALOS 2 2.6 18:23:55 54° SE 18:24:51 75° ENE 18:29:15 10° N
USA 215 3.2 18:20:26 20° ESE 18:25:11 89° SSW 18:31:46 10° WNW
Cosmos 1959 Rocket 4.5 18:20:17 10° N 18:26:35 79° ENE 18:29:04 39° SSE
Meteor 1-18 Rocket 4.4 18:25:41 41° SSE 18:27:23 56° E 18:32:52 10° NNE
Cosmos 1707 Rocket 3.7 18:28:40 48° SW 18:29:46 68° WNW 18:34:10 10° N
Cosmos 1833 Rocket 4.5 18:26:20 10° WNW 18:30:12 19° W 18:32:18 16° SW
Cosmos 2112 Rocket 4.3 18:26:27 10° NNW 18:31:41 56° WSW 18:33:10 42° SSW
SAR-Lupe-2 4.1 18:28:22 10° NNE 18:31:35 45° E 18:31:35 45° E
SL-24 R/B - RUBIN 2 3.9 18:28:10 10° NW 18:33:44 69° SW 18:34:56 50° S
Cosmos 1238 Rocket 4.0 18:31:39 10° NNW 18:38:05 71° W 18:40:15 40° SSW
SeaSat 1 3.5 18:34:25 10° NE 18:38:45 29° ESE 18:39:00 29° ESE
Okean 1-7 4.0 18:39:45 31° E 18:40:07 31° E 18:43:54 10° NNE
Cosmos 2181 Rocket 3.9 18:37:45 40° S 18:40:10 85° E 18:46:21 10° N
Cosmos 2297 3.6 18:40:12 43° SSW 18:42:08 76° ESE 18:47:50 10° NNE
Cosmos 1743 3.9 18:42:58 10° NNW 18:46:23 30° W 18:46:45 30° WSW
Cosmos 2242 Rocket 4.2 18:47:57 40° ESE 18:48:29 42° E 18:52:42 10° NNE
Cosmos 2366 rocket 4.0 18:46:18 10° NNW 18:52:28 72° W 18:54:46 40° SSW
Cosmos 1821 Rocket 4.3 18:47:48 10° N 18:54:09 61° ENE 18:56:58 34° SE
Cosmos 1733 Rocket 3.9 18:57:15 10° NNW 19:01:13 35° W 19:01:52 33° WSW
Cosmos 967 Rocket 4.4 18:58:50 38° SSW 19:01:24 78° SE 19:07:43 10° NE
Cosmos 2082 Rocket 3.8 18:59:23 10° NW 19:03:20 20° W 19:04:38 18° WSW
Cosmos 1818 3.6 18:59:50 10° NW 19:05:14 61° SW 19:06:27 48° S
Thor Agena Rocket 3.7 19:00:04 10° NNE 19:05:16 64° ESE 19:06:37 47° SSE
SJ 16-02 3.7 19:02:00 10° W 19:05:18 20° NW 19:08:37 10° N
Cosmos 1937 Rocket 3.5 19:03:50 42° SW 19:05:34 75° WNW 19:10:47 10° NNE
USA 281 4.2 19:02:29 11° ESE 19:08:25 44° NE 19:14:34 10° NNW
Nimbus 7 Rocket 4.3 19:03:30 10° NNE 19:09:25 84° ESE 19:11:31 43° S
Cosmos 2218 Rocket 4.4 19:04:07 10° NNW 19:10:10 53° W 19:12:32 35° SSW
Gbstr 26 Del rocket 3.8 19:04:58 10° WNW 19:12:02 67° SSW 19:15:06 30° SE
Resurs 1-4 Rocket 4.5 19:10:57 10° ENE 19:12:20 11° E 19:13:41 10° E
Cosmos 1908 Rocket 3.6 19:08:31 10° NNW 19:12:59 69° W 19:13:38 59° SSW
Cosmos 1048 Rocket 4.1 19:08:01 10° NNW 19:13:24 74° ENE 19:15:18 40° SE
Cosmos 1900 4.3 19:15:47 43° SW 19:17:29 83° NW 19:22:35 10° NE
Meteor 1-19 Rocket 4.5 19:16:07 36° SW 19:18:06 57° WNW 19:23:27 10° N
ISS -1.1 19:24:38 12° E 19:24:38 12° E 19:24:58 10° E
Cosmos 1356 Rocket 3.6 19:24:22 10° N 19:28:38 69° ENE 19:29:25 54° SE
Cosmos 2278 Rocket 4.4 19:27:31 10° W 19:31:53 22° NW 19:36:18 10° NNE
ERBS 3.9 19:29:58 10° WNW 19:31:35 26° WNW 19:31:35 26° WNW
Nadezhda 3 Rocket 3.9 19:32:46 41° S 19:35:10 83° E 19:41:26 10° N
Gblst 52 Del rocket 4.3 19:30:42 10° WNW 19:37:17 63° SSW 19:41:03 23° SE
Cosmos 1461 3.0 19:40:50 57° SSW 19:41:45 80° SE 19:46:23 10° NE
Cosmos 2369 Rocket 2.1 19:39:56 44° SSW 19:41:50 87° ESE 19:47:32 10° NNE
Cosmos 1703 Rocket 3.7 19:43:00 51° WSW 19:43:47 61° WNW 19:48:10 10° N
Cosmos 1782 Rocket 3.7 19:39:56 10° NNW 19:44:21 59° W 19:44:58 53° SW
Cosmos 2150 Rocket 4.1 19:43:52 45° S 19:45:22 66° ESE 19:50:39 10° NNE
Meteor 1-12 Rocket 4.3 19:39:27 10° NNW 19:45:23 76° W 19:47:26 42° S
Cosmos 2221 Rocket 4.5 19:44:52 34° SE 19:46:01 40° E 19:50:18 10° NNE
Meteor 1-13 Rocket 4.1 19:44:39 44° S 19:46:29 81° E 19:52:03 10° NNE
Cosmos 44 Rocket 3.9 19:43:53 10° NW 19:49:06 61° NE 19:53:36 13° ESE
Cosmos 2344 4.2 19:40:35 10° NW 19:49:35 85° SW 20:02:11 10° SE
COSMOS 2487 4.1 19:47:38 10° N 19:50:39 28° ENE 19:51:58 22° E
Cosmos 1943 Rocket 2.8 19:48:57 26° WSW 19:51:57 50° NW 19:57:26 10° NNE
Lacrosse 5 4.1 19:52:40 12° ESE 19:52:47 12° ESE 19:54:34 10° E
Cosmos 1607 4.1 19:51:15 39° S 19:53:35 62° ESE 20:00:00 10° NE
DNEPR-1 R/B 4.3 19:51:23 27° WSW 19:54:20 63° NW 19:59:06 10° NE
Cosmos 1378 3.0 19:55:30 73° WSW 19:55:39 75° WNW 19:59:23 10° N
RESURS DK-1 2.4 19:53:54 10° NW 19:58:01 60° WSW 19:58:10 59° SW
Meteor 2-4 Rocket 4.3 19:56:23 31° SW 19:58:48 48° WNW 20:04:16 10° N
Cosmos 1867 3.7 19:57:41 44° S 19:59:13 62° SE 20:04:38 10° NE
Cosmos 1605 Rocket 4.2 19:53:13 10° N 19:59:25 67° ENE 20:02:54 28° SSE
Cosmos 2263 4.2 19:58:46 41° SSW 20:00:57 88° ESE 20:06:48 10° NNE
PSLV R/B 3.7 19:57:26 10° N 20:01:53 68° WNW 20:02:52 50° SW
NOSS 2-1 (E) 4.4 19:58:03 10° NW 20:02:41 68° NE 20:09:15 10° SE
Cosmos 1805 3.1 19:59:43 10° NNW 20:03:39 84° W 20:04:04 69° S
Cosmos 1066 Rocket 4.2 20:02:55 40° S 20:05:06 87° ESE 20:10:50 10° NNE
Meteor 1-23 Rocket 4.4 20:03:50 37° S 20:06:10 69° E 20:11:58 10° NNE
Cosmos 1733 3.0 20:02:36 10° N 20:06:25 85° E 20:06:50 69° SSE
SL-27 R/B 3.1 20:03:45 10° NNW 20:06:18 41° WNW 20:06:18 41° WNW
Cosmos 1726 4.1 20:05:30 10° NNE 20:08:37 25° ENE 20:10:37 16° ESE
USA 215 3.8 20:07:44 34° SSW 20:08:43 35° SW 20:14:38 10° WNW
Cosmos 1766 3.2 20:05:39 10° N 20:09:40 79° E 20:10:24 57° SSE
Helios 1B rocket 4.2 20:06:21 10° NE 20:09:40 23° E 20:11:08 19° ESE
ATLAS 2AS CENTAUR R/B 4.2 20:07:48 10° WNW 20:12:16 18° WSW 20:13:07 17° WSW
Okean 3 3.8 20:15:08 44° WSW 20:16:01 54° WNW 20:20:12 10° N
SeaSat 1 2.9 20:11:39 10° NNE 20:16:29 54° NW 20:18:46 29° WSW
Cosmos 1125 Rocket 3.4 20:15:20 42° SSW 20:17:10 89° WNW 20:22:25 10° NNE
EO 1 Del DPAF 3.7 20:13:46 10° N 20:17:21 45° WNW 20:17:54 41° W
Okean 1-7 4.2 20:16:35 26° W 20:17:40 30° WNW 20:21:28 10° N
Cosmos 1656 Rocket 3.6 20:16:22 38° SW 20:18:33 79° WNW 20:24:07 10° NNE
USA 81 4.0 20:13:37 10° N 20:18:57 89° E 20:21:06 37° S
Cosmos 494 Rocket 4.3 20:14:08 10° NW 20:19:07 46° WSW 20:20:14 40° SW
Helios 1A 2.9 20:18:27 54° SSW 20:19:12 68° WSW 20:23:22 10° NNW
Sich 1 Rocket 3.9 20:15:15 10° NNW 20:19:43 52° W 20:20:38 44° SW
ATLAS CENTAUR R/B 1.3 20:19:55 51° SE 20:20:05 52° SE 20:23:49 10° NE
Okean 1 Rocket 3.8 20:17:27 10° N 20:21:45 49° ENE 20:24:00 25° SE
Cosmos 1400 Rocket 3.3 20:19:28 10° N 20:23:33 59° ENE 20:25:10 33° SE
Cosmos 2227 Rocket 4.0 20:20:38 10° NNW 20:25:39 31° NE 20:30:40 10° ESE
CZ-2D R/B 3.0 20:23:17 10° NNE 20:28:28 43° E 20:31:17 24° SSE
Cosmos 2297 Rocket 3.5 20:24:12 10° NNW 20:29:33 39° NE 20:34:50 10° ESE
Cosmos 1470 3.5 20:27:46 10° N 20:31:35 49° ENE 20:33:20 28° SE
Aureole 2 4.2 20:30:00 10° NNW 20:32:56 66° ENE 20:33:11 62° E
Cosmos 1674 Rocket 3.7 20:35:48 39° S 20:37:21 71° E 20:41:50 10° NNE
Meteor 1-22 Rocket 4.3 20:35:47 10° NNW 20:41:42 76° W 20:45:01 28° S
Meteor 2-10 4.1 20:37:47 10° NNW 20:43:18 85° ENE 20:46:26 26° SSE
SL-16 R/B 2.6 20:39:19 19° SSE 20:43:58 86° ENE 20:50:18 10° NNW
Okean 2 Rocket 3.6 20:40:43 10° NNW 20:44:52 41° W 20:45:48 36° SW
Cosmos 2151 Rocket 3.9 20:40:30 10° NNW 20:44:55 53° W 20:46:12 39° SW
NOSS 2-1 (C) 4.1 20:44:29 10° NW 20:49:14 64° SW 20:55:53 10° SSE
ADEOS II 3.4 20:45:10 10° NNE 20:49:52 32° E 20:53:42 14° SSE
BREEZE-M DEB (TANK) 4.5 20:48:32 30° S 20:50:40 45° SE 21:04:09 10° ENE
MOZ.5/SAFIR/RUBIN 5/SL-8 3.9 20:49:12 37° SSW 20:50:42 54° W 20:55:16 10° NNW
USA 281 3.4 20:49:20 27° S 20:52:50 52° WSW 20:59:16 10° NW
Cosmos 1842 3.1 20:51:48 46° SSW 20:52:54 86° W 20:56:48 10° N
Resurs 1-4 Rocket 2.3 20:47:54 10° NNE 20:53:10 67° ESE 20:56:01 27° S
Cosmos 2251 Rocket 4.3 20:48:25 10° NNW 20:53:33 50° ENE 20:58:37 10° SE
Cosmos 1269 Rocket 4.1 20:49:09 10° NNW 20:54:20 56° WSW 20:56:45 30° S
Cosmos 724 4.4 20:51:44 30° SSW 20:54:59 76° SE 21:01:14 10° NE
NOSS 2-1 (D) 4.2 20:51:14 10° NW 20:55:57 58° SW 21:02:35 10° SSE
ISS -3.9 20:57:34 45° WSW 20:58:31 88° SSE 21:01:55 10° E
Cosmos 1727 Rocket 4.0 20:59:10 26° S 21:03:01 90° ESE 21:09:26 10° N
Cosmos 2219 3.8 20:59:40 10° NNW 21:05:18 58° NE 21:10:57 10° SE
Cosmos 1455 Rocket 4.0 21:01:08 10° N 21:05:18 44° ENE 21:09:28 10° SSE
COSMOS 2455 2.9 21:00:24 10° NW 21:06:28 83° NE 21:12:30 10° SE
CZ-3B R/B 4.1 20:54:24 18° SW 21:10:37 64° SSE 21:15:45 10° ENE
Meteor 1-29 3.4 21:12:36 10° NNE 21:15:55 53° ESE 21:17:25 28° SSE
Cosmos 1953 3.2 21:13:49 10° N 21:17:41 47° ENE 21:21:32 10° SSE
USA 276 4.2 21:20:48 16° SE 21:20:48 16° SE 21:22:47 10° ESE
Cosmos 1674 4.1 21:17:59 14° SSE 21:20:49 34° E 21:24:20 10° NNE
Meteor 2-20 Rocket 4.4 21:20:29 22° SSW 21:24:38 81° W 21:30:51 10° N
COSMOS 2487 3.7 21:22:38 10° NW 21:25:14 23° W 21:25:14 23° W
Cosmos 2369 Rocket 3.9 21:22:03 10° W 21:26:36 25° NW 21:31:13 10° NNE
Cosmos 44 Rocket 4.3 21:25:53 10° WNW 21:30:23 30° WSW 21:32:14 23° SSW
Cosmos 1725 Rocket 4.2 21:27:12 10° N 21:33:31 74° ENE 21:39:44 10° SSE
Cosmos 1707 2.7 21:32:07 28° SSW 21:34:02 70° WNW 21:37:52 10° N
Lacrosse 5 2.2 21:31:51 23° SSW 21:34:45 52° SE 21:39:42 10° ENE
Meteor 1-16 Rocket 4.5 21:29:28 10° N 21:35:28 80° ENE 21:41:22 10° SSE
Timation 2 Rocket 3.9 21:30:33 10° NNW 21:36:35 89° NE 21:42:35 10° SSE
ARIANE 5 R/B 4.3 21:32:23 10° NE 21:36:45 27° E 21:41:02 10° SSE
Okean 2 4.0 21:34:47 25° SW 21:36:47 44° WNW 21:40:48 10° N
Cosmos 2061 Rocket 4.1 21:30:36 10° N 21:36:56 83° E 21:43:19 10° S
Cosmos 1943 Rocket 4.5 21:33:40 10° WNW 21:37:05 16° NNW 21:40:29 10° N
TSX-5 4.0 21:34:40 10° NNW 21:37:54 60° NE 21:41:35 10° SE
Cosmos 1975 Rocket 3.1 21:36:45 19° S 21:39:50 80° E 21:44:13 10° NNE
Meteor 1-21 4.4 21:37:09 21° SSW 21:41:08 64° WNW 21:46:55 10° N
Cosmos 1726 3.1 21:40:33 10° NNW 21:43:48 29° W 21:45:03 24° SW
Helios 1B rocket 3.1 21:41:10 10° N 21:45:06 43° WNW 21:47:27 21° SW
Spot 1 4.4 21:42:25 10° SSE 21:47:00 82° ENE 21:51:55 10° NNW
Cosmos 614 Rocket 3.9 21:42:33 10° NNW 21:47:40 84° WSW 21:52:45 10° SSE
ARGOS Delta rocket 3.7 21:43:11 10° N 21:47:42 76° WNW 21:51:10 18° SSW
Cosmos 1908 3.2 21:45:16 10° N 21:49:10 86° E 21:53:04 10° S
Cosmos 2233 Rocket 4.4 21:43:09 10° N 21:49:22 65° ENE 21:55:29 10° SSE
CZ-4C R/B 3.5 21:45:08 10° SSE 21:49:30 87° ENE 21:53:44 10° NNW
Cosmos 1758 4.1 21:46:25 10° NNW 21:50:12 36° W 21:52:22 21° SW
Cosmos 1459 Rocket 4.2 21:44:06 10° NNW 21:50:14 55° W 21:55:37 13° SSW
APEX 4.3 21:47:39 10° NNW 21:51:36 55° NE 21:56:32 10° SE
Cosmos 2016 Rocket 4.0 21:45:28 10° NNW 21:51:46 76° W 21:57:57 10° S
NPP 4.0 21:49:00 10° N 21:54:14 53° WNW 21:58:14 17° SW
AQUA 4.1 21:50:52 10° N 21:55:33 55° WNW 21:58:59 18° SW
Cosmos 1697 Rocket 3.9 21:50:54 10° S 21:56:00 37° ESE 22:01:08 10° NE
Geosat FO 4.4 21:54:52 10° NNE 21:58:14 82° ESE 22:00:36 19° SSW
Cosmos 1315 Rocket 3.3 21:55:27 10° NNW 21:59:10 40° W 22:01:51 17° SSW
ATLAS CENTAUR R/B 2.8 21:56:03 11° W 21:59:11 27° NNW 22:02:33 10° NNE
Cosmos 371 Rocket 3.5 21:55:17 15° SSW 21:59:20 69° ESE 22:04:13 10° NNE
Cosmos 2173 Rocket 4.3 21:53:44 10° NNW 21:59:34 46° W 22:04:52 13° SSW
Cosmos 1626 2.8 21:58:07 10° S 22:01:42 52° E 22:05:19 10° NNE
CBERS-1 4.1 21:57:13 10° NNE 22:02:21 82° ESE 22:07:14 11° SSW
Cosmos 1980 Rocket 4.1 22:01:46 10° SSE 22:06:19 25° ESE 22:10:53 10° NE
Lacrosse 4 Rocket 3.6 22:03:43 10° SSE 22:07:06 21° ESE 22:10:28 10° ENE
CZ-2D R/B 3.1 22:03:31 10° N 22:08:26 36° WNW 22:12:36 14° WSW
Cosmos 407 Rocket 3.7 22:03:50 10° NNW 22:09:12 83° ENE 22:14:34 10° SSE
Cosmos 2227 Rocket 2.2 22:04:32 10° NW 22:10:07 62° WSW 22:15:40 10° SSE
Meteor 1-28 Rocket 3.6 22:09:29 13° SSW 22:12:35 42° W 22:16:09 10° NNW
SL-14 R/B 4.1 22:09:39 10° S 22:13:25 49° E 22:17:14 10° NNE
USA 129 4.2 22:12:29 10° ESE 22:13:36 14° E 22:14:28 10° NE
Cosmos 2297 Rocket 2.5 22:08:18 10° NW 22:13:43 46° WSW 22:19:05 10° S
Cosmos 1802 Rocket 4.4 22:09:03 10° NNW 22:14:52 45° W 22:20:37 10° SSW
ADEOS Rocket 3.6 22:08:23 10° S 22:15:38 61° W 22:23:21 10° NNW
CZ-4B R/B 4.0 22:13:52 10° NNE 22:18:45 59° ESE 22:23:43 10° S
IDEFIX/ARIANE 42P 2.6 22:15:24 10° NNE 22:20:42 89° ESE 22:25:59 10° SSW
Cosmos 2082 3.7 22:16:09 10° NNW 22:21:52 88° WSW 22:27:36 10° SSE
Cosmos 1025 Rocket 3.0 22:20:51 10° SSW 22:25:10 70° WNW 22:29:33 10° N
Cosmos 1340 4.3 22:23:52 10° SSE 22:27:15 33° E 22:30:38 10° NNE
SL-16 R/B 3.9 22:24:23 12° SW 22:28:22 20° W 22:32:53 10° NW
ADEOS II 2.6 22:24:43 10° N 22:29:42 45° WNW 22:34:38 10° SW
GP-B 3.3 22:26:46 10° N 22:31:08 56° W 22:35:27 10° SSW
Cosmos 1544 Rocket 4.0 22:28:03 10° NNW 22:32:12 42° W 22:36:20 10° SSW
Resurs 1-4 Rocket 3.6 22:28:27 10° N 22:32:33 24° WNW 22:36:39 10° WSW
Cosmos 2123 Rocket 4.2 22:26:37 10° SSW 22:32:39 56° WNW 22:38:47 10° N
Cosmos 2056 Rocket 4.4 22:29:11 10° S 22:34:03 47° ESE 22:38:57 10° NE
Cosmos 1954 Rocket 4.5 22:29:28 10° NNW 22:34:43 67° ENE 22:39:59 10° SE
ISS -3.7 22:32:00 10° W 22:35:24 86° N 22:38:48 10° E
Cosmos 2251 Rocket 4.4 22:31:08 10° NW 22:35:35 29° W 22:40:00 10° SSW
IRS-1D 4.1 22:33:32 10° N 22:38:36 46° WNW 22:43:40 10° SW
MSX 3.9 22:33:29 10° NNE 22:39:19 89° WNW 22:45:06 10° SSW
Meteor 2-5 Rocket 4.0 22:34:45 10° S 22:40:28 72° E 22:46:06 10° NNE
Meteor 1-24 Rocket 4.2 22:37:18 10° S 22:42:50 62° E 22:48:13 10° NNE
Cosmos 1455 Rocket 4.4 22:39:32 10° NW 22:42:52 22° W 22:46:11 10° SW
Cosmos 1371 Rocket 4.4 22:40:58 10° S 22:46:09 66° ESE 22:51:20 10° NNE
Cosmos 2219 4.0 22:44:18 10° NW 22:49:09 30° WSW 22:54:02 10° SSW
COSMOS 2441 4.4 22:46:20 10° NNE 22:51:15 79° WNW 22:56:10 10° SSW
COSMOS 2455 4.0 22:47:14 10° WNW 22:51:44 22° WSW 22:56:13 10° SSW
Cosmos 405 3.1 22:49:28 10° N 22:53:02 82° ENE 22:56:32 10° SSE
Cosmos 1536 Rocket 3.7 22:48:44 10° SSW 22:53:05 64° WNW 22:57:30 10° N
Cosmos 1953 3.9 22:51:00 10° NW 22:53:43 18° W 22:56:25 10° SW
IRAS Rocket 4.5 22:52:03 10° SSE 22:57:37 80° ENE 23:03:16 10° NNW
